Regional Weather Roundup
Issued by NWS Midland/Odessa, TX

Skip options and go directly to product.
Home | Oldest Version | Previous Version | Current Version | All | Text Only | Save Text | Print | Product List | Glossary On

Skip product version selection by date and time.   
922
ASUS44 KMAF 012310
RWRMAF
MIDLAND AREA WEATHER ROUNDUP
NATIONAL WEATHER SERVICE MIDLAND TX
600 PM CDT MON SEP 01 2014

...IN SOUTHWEST TEXAS AND SOUTHEAST NEW MEXICO...

CITY           SKY/WX    TMP DP  RH WIND       PRES   REMARKS
ALPINE         MOSUNNY   97  47  18 S10       30.03S
ANDREWS        FAIR     102  42  12 W12       29.85F
ARTESIA        NOT AVBL
BIG SPRING     SUNNY    102  54  20 SE9       29.85S HX 100
CARLSBAD       SUNNY    102  34   9 SE8       29.84F
DRYDEN           N/A    104  59  22 SE13G21   29.82S HX 104
FORT STOCKTON  MOSUNNY  100  54  21 SE14G22   29.85F
GUAD PASS      SUNNY     94  40  15 SW26      30.06F
HOBBS          SUNNY     99  37  12 SW9       29.89F
MARFA          MOSUNNY   91  43  18 CALM      30.04F
MIDLAND AIRPK  SUNNY    104  49  15 S9        29.84F HX 101
MIDLAND INTL   MOSUNNY  102  53  19 S9        29.83F HX 100
ODESSA         SUNNY    102  43  13 S12       29.85F
PECOS          SUNNY    104  45  13 NW3       29.79F HX 100
PRESIDIO       FAIR     103  51  17 NW9G18    29.83F HX 100
SEMINOLE       SUNNY    102  40  11 S8G17     29.86F
SNYDER         SUNNY    100  60  27 S17       29.82F HX 100
WINK           SUNNY    104  42  12 S10       29.81F
$$
...OTHER STATIONS IN TEXAS...

CITY           SKY/WX    TMP DP  RH WIND       PRES   REMARKS
ABILENE        SUNNY    100  56  23 S16       29.82S
AMARILLO       SUNNY     93  56  28 SE6       29.90F
AUSTIN         MOSUNNY   97  69  40 SE16G23   29.84S HX 103
BROWNSVILLE    MOSUNNY   89  77  67 SE13G23   29.85S HX 101
CORPUS CHRISTI MOSUNNY   88  75  65 SE15      29.87R
DALLAS FTW     MOSUNNY   95  69  42 S17       29.83S HX 100
DEL RIO        SUNNY    101  62  27 SE13G24   29.78F HX 102
EL PASO        MOSUNNY   99  37  11 W10G20    29.92F
HOUSTON INT    MOSUNNY   90  75  62 SE14G22   29.89S HX 100
LUBBOCK        MOSUNNY  102  45  14 S14       29.84F
SAN ANGELO     SUNNY     99  62  29 S15G21    29.83S HX 100
SAN ANTONIO    MOSUNNY   98  64  32 S14       29.84F HX 100
WACO           MOSUNNY   97  67  37 S15       29.84S HX 101
WICHITA FALLS  NOT AVBL
$$
...OTHER LOCATIONS IN NEW MEXICO...

CITY           SKY/WX    TMP DP  RH WIND       PRES   REMARKS
ALAMAGORDO     SUNNY     95  32  11 W5        29.96S
ALBUQUERQUE    MOSUNNY   91  35  13 CALM      30.03F
CANNON AFB     SUNNY     97  41  14 W12       29.93F
CLOVIS           N/A     97  41  14 W13       29.94F
HOLLOMAN AFB   SUNNY     96  31  10 W9G16     29.93F
ROSWELL        SUNNY    100  42  13 SE14      29.88S
RUIDOSO        SUNNY     84  36  17 S12       30.18S
SANTA FE       SUNNY     88  30  12 W15G22    30.08F
TRUTH OR CONSE SUNNY     95  30  10 VRB5G17   29.97F
TUCUMCARI      SUNNY     97  39  13 VRB3      29.88F
$$

USA.gov is the U.S. government's official web portal to all federal, state and local government web resources and services.